Tracking 28125 objects as of 2-Oct-2023
HD Live streaming from Space Station
objects crossing your sky now

STARLINK-2533

Track STARLINK-2533 now!
10-day predictions
STARLINK-2533 is classified as:


NORAD ID: 48294
Int'l Code: 2021-036U
Perigee: 553.3 km
Apogee: 555.2 km
Inclination: 53.1 °
Period: 95.6 minutes
Semi major axis: 6925 km
RCS: Unknown
Launch date: April 29, 2021
Source: United States (US)
Launch site: AIR FORCE EASTERN TEST RANGE (AFETR)
Your satellite tracking list
Your tracking list is empty




NASA's NSSDC Master Catalog

Two Line Element Set (TLE):
1 48294U 21036U   23274.84596270  .00023369  00000-0  15813-2 0  9991
2 48294  53.0536 116.2840 0001326  73.1165 286.9969 15.06428922134194
Source of the keplerian elements: AFSPC